Time,TemperatureF,DewpointF,PressureIn,WindDirection,WindDirectionDegrees,WindSpeedMPH,WindSpeedGustMPH,Humidity,HourlyPrecipIn,Conditions,Clouds,dailyrainin,SoftwareType,DateUTC
2013-02-03 00:00:00,36.3,21.7,28.97,ENE,75,8.1,26.8,55,0.00,,BKN046,0.00,VWS V14.01,2013-02-03 06:00:00,
2013-02-03 00:15:00,35.4,21.3,28.97,ENE,78,14.1,24.8,56,0.00,,BKN037,0.00,VWS V14.01,2013-02-03 06:15:00,
2013-02-03 00:30:00,34.5,21.3,28.97,East,97,30.9,30.9,58,0.00,,BKN037,0.00,VWS V14.01,2013-02-03 06:30:00,
2013-02-03 00:45:00,33.1,20.7,29.00,ENE,74,15.4,30.9,60,0.00,,BKN037,0.00,VWS V14.01,2013-02-03 06:45:00,
2013-02-03 01:00:00,32.2,21.0,29.00,NE,51,12.1,26.8,63,0.00,,BKN037,0.00,VWS V14.01,2013-02-03 07:00:00,
2013-02-03 01:15:00,31.8,21.0,29.00,East,82,18.1,23.5,64,0.00,,FEW035,0.00,VWS V14.01,2013-02-03 07:15:00,
2013-02-03 01:30:00,31.6,20.5,29.00,ENE,61,19.5,20.8,63,0.00,,FEW035,0.00,VWS V14.01,2013-02-03 07:30:00,
2013-02-03 01:45:00,31.5,19.6,29.00,WNW,285,10.7,26.8,61,0.00,,FEW035,0.00,VWS V14.01,2013-02-03 07:45:00,
2013-02-03 02:00:00,31.5,14.5,29.00,ENE,69,18.1,37.6,49,0.00,,FEW035,0.00,VWS V14.01,2013-02-03 08:00:00,
2013-02-03 02:15:00,30.9,13.1,29.03,North,353,12.1,36.2,47,0.00,,FEW035,0.00,VWS V14.01,2013-02-03 08:15:00,
2013-02-03 02:30:00,30.2,13.4,29.03,ENE,60,13.4,28.2,49,0.00,,FEW035,0.00,VWS V14.01,2013-02-03 08:30:00,
2013-02-03 02:45:00,29.3,13.4,29.03,North,357,20.8,23.5,51,0.00,,FEW035,0.00,VWS V14.01,2013-02-03 08:45:00,
2013-02-03 03:00:00,28.8,12.5,29.03,NNW,344,14.1,26.8,50,0.00,,FEW035,0.00,VWS V14.01,2013-02-03 09:00:00,
2013-02-03 03:15:00,28.4,11.7,29.03,North,353,20.8,33.6,49,0.00,,CLR,0.00,VWS V14.01,2013-02-03 09:15:00,
2013-02-03 03:30:00,27.9,10.7,29.03,NNW,348,15.4,39.6,48,0.00,,CLR,0.00,VWS V14.01,2013-02-03 09:30:00,
2013-02-03 03:45:00,27.5,9.9,29.00,NE,48,23.5,36.2,47,0.00,,CLR,0.00,VWS V14.01,2013-02-03 09:45:00,
2013-02-03 04:00:00,27.0,9.4,29.00,SE,137,0.0,24.8,47,0.00,,CLR,0.00,VWS V14.01,2013-02-03 10:00:00,
2013-02-03 04:15:00,26.2,9.7,29.03,NNE,13,9.4,26.2,49,0.00,,CLR,0.00,VWS V14.01,2013-02-03 10:15:00,
2013-02-03 04:30:00,26.1,9.5,29.03,East,98,20.8,20.8,49,0.00,,CLR,0.00,VWS V14.01,2013-02-03 10:30:00,
2013-02-03 04:45:00,25.9,10.3,29.03,East,88,8.1,20.8,51,0.00,,CLR,0.00,VWS V14.01,2013-02-03 10:45:00,
2013-02-03 05:00:00,25.3,9.8,29.03,NW,308,0.0,20.8,51,0.00,,CLR,0.00,VWS V14.01,2013-02-03 11:00:00,
2013-02-03 05:15:00,25.0,9.4,29.03,North,6,9.4,19.5,51,0.00,,CLR,0.00,VWS V14.01,2013-02-03 11:15:00,
2013-02-03 05:30:00,24.6,9.1,29.03,North,353,0.0,18.1,51,0.00,,CLR,0.00,VWS V14.01,2013-02-03 11:30:00,
2013-02-03 05:45:00,24.6,9.1,29.03,NE,39,8.1,16.8,51,0.00,,CLR,0.00,VWS V14.01,2013-02-03 11:45:00,
2013-02-03 06:00:00,24.1,8.6,29.03,ENE,77,14.1,19.5,51,0.00,,CLR,0.00,VWS V14.01,2013-02-03 12:00:00,
2013-02-03 06:15:00,23.5,8.5,29.03,ENE,60,10.7,19.5,52,0.00,,CLR,0.00,VWS V14.01,2013-02-03 12:15:00,
2013-02-03 06:30:00,23.0,8.4,29.03,ENE,59,0.0,14.1,53,0.00,,CLR,0.00,VWS V14.01,2013-02-03 12:30:00,
2013-02-03 06:45:00,22.3,7.8,29.03,ENE,59,0.0,0.0,53,0.00,,CLR,0.00,VWS V14.01,2013-02-03 12:45:00,
2013-02-03 07:00:00,20.8,6.4,29.03,ENE,60,0.0,0.0,53,0.00,,CLR,0.00,VWS V14.01,2013-02-03 13:00:00,
2013-02-03 07:15:00,19.4,5.5,29.03,ENE,60,0.0,0.0,54,0.00,,CLR,0.00,VWS V14.01,2013-02-03 13:15:00,
2013-02-03 07:30:00,18.5,5.0,29.03,ENE,59,0.0,0.0,55,0.00,,CLR,0.00,VWS V14.01,2013-02-03 13:30:00,
2013-02-03 07:45:00,18.9,5.8,29.03,ENE,59,0.0,0.0,56,0.00,,CLR,0.00,VWS V14.01,2013-02-03 13:45:00,
2013-02-03 08:00:00,19.0,6.3,29.03,ENE,59,0.0,0.0,57,0.00,,CLR,0.00,VWS V14.01,2013-02-03 14:00:00,
2013-02-03 08:15:00,20.3,7.9,29.03,ENE,60,0.0,0.0,58,0.00,,FEW100,0.00,VWS V14.01,2013-02-03 14:15:00,
2013-02-03 08:30:00,21.2,9.5,29.03,ENE,60,0.0,0.0,60,0.00,,FEW100,0.00,VWS V14.01,2013-02-03 14:30:00,
2013-02-03 08:45:00,22.8,11.4,29.03,ENE,60,0.0,0.0,61,0.00,,FEW100,0.00,VWS V14.01,2013-02-03 14:45:00,
2013-02-03 09:00:00,24.3,13.1,29.03,SSW,206,0.0,13.4,62,0.00,,FEW100,0.00,VWS V14.01,2013-02-03 15:00:00,
2013-02-03 09:15:00,25.7,14.1,29.03,WNW,291,0.0,13.4,61,0.00,,FEW100,0.00,VWS V14.01,2013-02-03 15:15:00,
2013-02-03 09:30:00,27.0,14.2,29.00,SW,226,0.0,14.1,58,0.00,,FEW100,0.00,VWS V14.01,2013-02-03 15:30:00,
2013-02-03 09:45:00,27.9,14.2,29.00,SW,227,0.0,13.4,56,0.00,,FEW100,0.00,VWS V14.01,2013-02-03 15:45:00,
2013-02-03 10:00:00,29.3,14.7,29.00,SW,223,0.0,14.1,54,0.00,,FEW100,0.00,VWS V14.01,2013-02-03 16:00:00,
2013-02-03 10:15:00,30.7,15.2,29.00,WSW,237,9.4,15.4,52,0.00,,SCT110,0.00,VWS V14.01,2013-02-03 16:15:00,
2013-02-03 10:30:00,32.4,16.3,29.00,SSW,211,0.0,18.1,51,0.00,,SCT110,0.00,VWS V14.01,2013-02-03 16:30:00,
2013-02-03 10:45:00,33.4,17.3,28.97,WSW,252,16.8,19.5,51,0.00,,SCT110,0.00,VWS V14.01,2013-02-03 16:45:00,
2013-02-03 11:00:00,34.2,17.9,28.97,SW,221,15.4,24.8,51,0.00,,SCT110,0.00,VWS V14.01,2013-02-03 17:00:00,
2013-02-03 11:15:00,35.1,18.8,28.97,SW,234,13.4,22.1,51,0.00,,FEW110,0.00,VWS V14.01,2013-02-03 17:15:00,
2013-02-03 11:30:00,35.8,18.5,28.94,WSW,249,13.4,23.5,49,0.00,,FEW110,0.00,VWS V14.01,2013-02-03 17:30:00,
2013-02-03 11:45:00,36.5,18.2,28.94,WSW,242,12.1,22.1,47,0.00,,FEW110,0.00,VWS V14.01,2013-02-03 17:45:00,
2013-02-03 12:00:00,37.0,17.7,28.94,SW,236,14.1,22.1,45,0.00,,FEW110,0.00,VWS V14.01,2013-02-03 18:00:00,
2013-02-03 12:15:00,37.9,18.5,28.94,SW,232,19.5,20.8,45,0.00,,CLR,0.00,VWS V14.01,2013-02-03 18:15:00,
2013-02-03 12:30:00,38.3,17.2,28.91,SW,220,13.4,26.2,42,0.00,,CLR,0.00,VWS V14.01,2013-02-03 18:30:00,
2013-02-03 12:45:00,38.7,17.6,28.91,WSW,249,12.1,24.8,42,0.00,,CLR,0.00,VWS V14.01,2013-02-03 18:45:00,
2013-02-03 13:00:00,39.2,18.0,28.88,WSW,249,20.8,26.2,42,0.00,,CLR,0.00,VWS V14.01,2013-02-03 19:00:00,
2013-02-03 13:15:00,39.4,17.7,28.88,West,273,8.1,22.1,41,0.00,,SCT250,0.00,VWS V14.01,2013-02-03 19:15:00,
2013-02-03 13:30:00,39.7,18.5,28.88,WSW,238,16.8,22.1,42,0.00,,SCT250,0.00,VWS V14.01,2013-02-03 19:30:00,
2013-02-03 13:45:00,40.5,18.6,28.88,SW,219,10.7,26.2,41,0.00,,SCT250,0.00,VWS V14.01,2013-02-03 19:45:00,
2013-02-03 14:00:00,40.8,18.4,28.85,West,267,13.4,24.8,40,0.00,,SCT250,0.00,VWS V14.01,2013-02-03 20:00:00,
2013-02-03 14:15:00,40.8,19.0,28.85,WSW,238,14.1,28.2,41,0.00,,SCT250,0.00,VWS V14.01,2013-02-03 20:15:00,
2013-02-03 14:30:00,41.2,19.3,28.82,WSW,244,20.8,28.2,41,0.00,,SCT250,0.00,VWS V14.01,2013-02-03 20:30:00,
2013-02-03 14:45:00,41.7,19.8,28.82,SW,220,23.5,30.9,41,0.00,,SCT250,0.00,VWS V14.01,2013-02-03 20:45:00,
2013-02-03 15:00:00,41.7,19.2,28.82,NNW,337,8.1,26.2,40,0.00,,SCT250,0.00,VWS V14.01,2013-02-03 21:00:00,
2013-02-03 15:15:00,42.1,20.1,28.79,West,267,19.5,28.2,41,0.00,,BKN250,0.00,VWS V14.01,2013-02-03 21:15:00,
2013-02-03 15:30:00,41.9,19.9,28.79,WSW,247,22.1,26.2,41,0.00,,BKN250,0.00,VWS V14.01,2013-02-03 21:30:00,
2013-02-03 15:45:00,41.7,19.8,28.79,WSW,242,12.1,26.8,41,0.00,,BKN250,0.00,VWS V14.01,2013-02-03 21:45:00,
2013-02-03 16:00:00,41.7,19.8,28.79,WSW,255,0.0,34.9,41,0.00,,BKN250,0.00,VWS V14.01,2013-02-03 22:00:00,
2013-02-03 16:15:00,41.5,20.2,28.76,WSW,257,0.0,20.8,42,0.00,,BKN250,0.00,VWS V14.01,2013-02-03 22:15:00,
2013-02-03 16:30:00,41.4,20.0,28.76,SW,235,14.1,28.2,42,0.00,,BKN250,0.00,VWS V14.01,2013-02-03 22:30:00,
2013-02-03 16:45:00,41.0,19.7,28.76,SW,236,0.0,26.8,42,0.00,,BKN250,0.00,VWS V14.01,2013-02-03 22:45:00,
2013-02-03 17:00:00,40.5,20.3,28.73,WSW,252,12.1,26.8,44,0.00,,BKN250,0.00,VWS V14.01,2013-02-03 23:00:00,
2013-02-03 17:15:00,39.7,20.1,28.73,WSW,243,10.7,19.5,45,0.00,,BKN250,0.00,VWS V14.01,2013-02-03 23:15:00,
2013-02-03 17:30:00,39.0,20.5,28.73,WSW,237,12.1,19.5,47,0.00,,BKN250,0.00,VWS V14.01,2013-02-03 23:30:00,
2013-02-03 17:45:00,38.3,20.8,28.73,WSW,237,8.1,19.5,49,0.00,,BKN250,0.00,VWS V14.01,2013-02-03 23:45:00,
2013-02-03 18:00:00,37.8,20.8,28.73,WSW,240,8.1,23.5,50,0.00,,BKN250,0.00,VWS V14.01,2013-02-04 00:00:00,
2013-02-03 18:15:00,37.2,20.8,28.73,WSW,244,0.0,18.1,51,0.00,,BKN250,0.00,VWS V14.01,2013-02-04 00:15:00,
2013-02-03 18:30:00,36.9,20.9,28.73,WSW,239,0.0,14.1,52,0.00,,BKN250,0.00,VWS V14.01,2013-02-04 00:30:00,
2013-02-03 18:45:00,36.9,21.3,28.73,SSW,213,8.1,15.4,53,0.00,,BKN250,0.00,VWS V14.01,2013-02-04 00:45:00,
2013-02-03 19:00:00,36.7,21.2,28.73,WSW,239,0.0,14.1,53,0.00,,BKN250,0.00,VWS V14.01,2013-02-04 01:00:00,
2013-02-03 19:15:00,36.3,20.8,28.73,WSW,237,0.0,12.1,53,0.00,,BKN250,0.00,VWS V14.01,2013-02-04 01:15:00,
2013-02-03 19:30:00,35.8,20.3,28.73,SW,232,0.0,0.0,53,0.00,,BKN250,0.00,VWS V14.01,2013-02-04 01:30:00,
2013-02-03 19:45:00,35.2,20.3,28.70,SW,232,0.0,0.0,54,0.00,,BKN250,0.00,VWS V14.01,2013-02-04 01:45:00,
2013-02-03 20:00:00,35.2,20.7,28.70,SW,232,0.0,0.0,55,0.00,,BKN250,0.00,VWS V14.01,2013-02-04 02:00:00,
2013-02-03 20:15:00,35.2,20.7,28.70,SW,232,0.0,0.0,55,0.00,,BKN250,0.00,VWS V14.01,2013-02-04 02:15:00,
2013-02-03 20:30:00,35.1,21.0,28.70,SW,232,0.0,0.0,56,0.00,,BKN250,0.00,VWS V14.01,2013-02-04 02:30:00,
2013-02-03 20:45:00,35.2,21.5,28.70,SW,225,0.0,10.7,57,0.00,,BKN250,0.00,VWS V14.01,2013-02-04 02:45:00,
2013-02-03 21:00:00,35.4,22.5,28.67,SW,234,0.0,13.4,59,0.00,,BKN250,0.00,VWS V14.01,2013-02-04 03:00:00,
2013-02-03 21:15:00,35.4,22.5,28.67,SW,233,0.0,10.7,59,0.00,,OVC250,0.00,VWS V14.01,2013-02-04 03:15:00,
2013-02-03 21:30:00,35.4,22.9,28.67,SW,230,0.0,14.1,60,0.00,,OVC250,0.00,VWS V14.01,2013-02-04 03:30:00,
2013-02-03 21:45:00,35.4,22.9,28.67,SW,230,0.0,0.0,60,0.00,,OVC250,0.00,VWS V14.01,2013-02-04 03:45:00,
2013-02-03 22:00:00,35.2,22.8,28.67,WSW,251,0.0,0.0,60,0.00,,OVC250,0.00,VWS V14.01,2013-02-04 04:00:00,
2013-02-03 22:15:00,35.2,23.1,28.64,West,263,0.0,8.1,61,0.00,,OVC250,0.00,VWS V14.01,2013-02-04 04:15:00,
2013-02-03 22:30:00,35.2,23.1,28.64,West,263,0.0,0.0,61,0.00,,OVC250,0.00,VWS V14.01,2013-02-04 04:30:00,
2013-02-03 22:45:00,35.2,23.1,28.64,West,263,0.0,8.1,61,0.00,,OVC250,0.00,VWS V14.01,2013-02-04 04:45:00,
2013-02-03 23:15:00,34.9,23.2,28.64,West,263,0.0,0.0,62,0.00,,OVC250,0.00,VWS V14.01,2013-02-04 05:15:00,
2013-02-03 23:30:00,34.5,22.9,28.64,West,263,0.0,0.0,62,0.00,,OVC250,0.00,VWS V14.01,2013-02-04 05:30:00,
2013-02-03 23:45:00,34.0,22.4,28.61,West,262,0.0,0.0,62,0.00,,OVC250,0.00,VWS V14.01,2013-02-04 05:45:00,